#timestamp,LO_Frequency,Hit,StdDev 
1592992815.7,286047002.8,N
1592992835.5,286047002.4,N
1592992855.3,286047003.9,Y
1592992875.2,286047000.8,P
1592992895.9,286046998.1,P
1592992915.7,286047000.6,N
1592992935.6,286046998.3,N
1592992955.4,286046998.5,N
1592992975.2,286046999.4,N
1592992995.0,286046998.1,N
1592992996.0,286046998.1,N
1592993015.8,286046998.8,N
1592993035.6,286046999.5,N
1592993055.4,286046997.0,N
1592993075.3,286046996.6,N
1592993095.1,286046997.0,N
1592993115.8,286046998.2,N
1592993135.7,286047000.4,N
1592993155.5,286046999.9,N
1592993175.3,286047000.6,N
1592993195.2,286047002.4,N
1592993215.0,286047002.6,N
1592993215.9,286047002.6,N
1592993235.7,286047000.6,N
1592993255.6,286047000.1,N
1592993275.4,286047000.0,N
1592993295.2,286047000.1,N
1592993315.1,286047002.6,N
1592993316.0,286047002.6,N
1592993335.8,286047002.3,N
1592993355.6,286047002.2,N
1592993375.5,286047000.4,N
1592993395.3,286047002.3,N
1592993415.1,286047000.4,N
1592993435.9,286047000.3,N
1592993455.7,286047001.8,N
1592993475.5,286047002.7,N
1592993495.4,286047000.3,N
1592993515.2,286047000.3,N
1592993535.0,286047000.6,N
1592993535.9,286047000.6,N
1592993555.8,286047001.1,N
1592993575.6,286047000.1,N
1592993595.4,286047001.2,N
1592993615.3,286047001.0,N
1592993635.1,286047002.7,N
1592993655.8,286047002.7,N
1592993675.7,286047000.1,N
1592993695.5,286046999.8,N
1592993715.3,286047002.6,N
1592993735.2,286047002.5,N
1592993755.0,286047002.3,N
1592993755.9,286047002.3,N
1592993775.7,286047001.6,N
1592993795.6,286047000.2,N
1592993815.4,286047001.1,N
1592993835.2,286047001.1,N
1592993855.1,286046998.6,N
1592993856.0,286046998.6,N
1592993875.8,286046998.6,N
1592993895.6,286046999.5,N
1592993915.5,286046999.2,N
1592993935.3,286046998.5,N
1592993955.1,286046998.8,N
1592993975.9,286046998.4,N
1592993995.7,286046999.0,N
1592994015.5,286046998.6,N
1592994035.4,286046996.5,N
1592994055.2,286046998.8,N
1592994075.0,286046997.2,N
1592994075.9,286046997.2,N
1592994095.8,286046999.6,N
1592994115.6,286046997.1,N
1592994135.4,286046998.0,N
1592994155.3,286046995.4,N
1592994175.1,286046998.0,N
1592994195.8,286046997.9,N
1592994215.7,286046995.0,N
1592994235.5,286046997.5,N
1592994255.3,286046997.8,N
1592994275.2,286046995.3,N
1592994295.0,286046995.4,N
1592994295.9,286046995.4,N
1592994315.7,286046995.7,N
1592994335.6,286046995.7,N
1592994355.4,286046995.9,N
1592994375.2,286046993.5,Y
1592994395.1,286046997.2,P
1592994396.0,286046997.2,P
1592994415.8,286046997.1,P
1592994435.7,286046997.3,Y
1592994455.5,286047001.1,P
1592994475.3,286047001.0,N
1592994495.2,286047000.8,N
1592994515.9,286046998.4,N
1592994535.7,286046998.4,N
1592994555.6,286046998.4,N
1592994575.4,286046998.9,N
1592994595.2,286047001.2,N
1592994615.1,286047001.2,N
1592994616.0,286047001.2,N
1592994635.8,286046998.8,N
1592994655.6,286046996.8,N
1592994675.5,286046996.8,N
1592994695.3,286046996.5,N
1592994715.1,286046996.9,N
1592994735.9,286046999.0,N
1592994755.7,286046999.1,N
1592994775.5,286046997.1,N
1592994795.4,286046997.4,N
1592994815.2,286046994.9,Y
1592994835.0,286046999.5,P
1592994835.9,286046999.5,N
1592994855.8,286046999.6,N
1592994875.6,286046996.6,Y
1592994895.4,286046998.3,P
1592994915.3,286046998.4,P
1592994935.1,286046998.8,N
1592994936.0,286046998.8,N
1592994955.8,286046999.0,N
1592994975.7,286046996.8,Y
1592994995.5,286046998.9,P
1592995015.3,286046998.3,P
1592995035.2,286046998.9,P
1592995055.9,286046998.3,Y
1592995075.7,286047000.8,P
1592995095.6,286046998.4,N
1592995115.4,286047000.7,N
1592995135.2,286047001.1,N
1592995155.1,286047000.3,N
1592995156.0,286047000.3,N
1592995175.8,286047000.4,N
1592995195.6,286046998.1,N
1592995215.5,286046998.9,N
1592995235.3,286046998.8,N
1592995255.1,286046998.3,N
1592995275.9,286046999.6,N
1592995295.7,286046999.2,N
1592995315.5,286046998.7,N
1592995335.4,286046998.3,N
1592995355.2,286046998.7,N
1592995375.0,286046998.6,N
1592995375.9,286046998.6,N
1592995395.8,286046998.6,N
1592995415.6,286046998.5,N
1592995435.4,286046999.1,N
1592995455.3,286046997.1,Y
1592995475.1,286046998.4,P
1592995476.0,286046998.4,P
1592995495.8,286047001.0,N
1592995515.7,286046998.9,N
1592995535.5,286046999.2,N
1592995555.3,286046998.7,N
1592995575.2,286046998.8,N
1592995595.9,286046998.4,N
1592995615.7,286047000.6,N
1592995635.6,286046998.1,N
1592995655.4,286047000.9,N
1592995675.2,286046998.6,N
1592995695.1,286046999.2,N
1592995696.0,286046999.2,N
1592995715.8,286046998.3,N
1592995735.6,286046998.9,N
1592995755.5,286046998.5,N
1592995775.3,286046996.5,Y
1592995795.1,286046998.5,P
1592995815.9,286047000.7,N
1592995835.7,286047000.9,N
1592995855.5,286046999.0,N
1592995875.4,286046998.5,N
1592995895.2,286046998.8,N
1592995915.0,286046996.5,Y
1592995915.9,286046996.5,P
1592995935.8,286046998.4,N
1592995955.6,286047001.2,N
1592995975.4,286047000.7,N
1592995995.3,286046998.4,N
1592996015.1,286046998.1,N
1592996035.8,286047000.6,N
1592996055.7,286047000.7,N
1592996075.5,286046998.7,N
1592996095.3,286047000.8,N
1592996115.2,286047001.2,N
1592996135.9,286047000.7,N
1592996155.7,286047000.3,N
1592996175.6,286047000.2,N
1592996195.4,286047000.9,N
1592996215.2,286047002.5,N
1592996235.1,286047001.9,N
1592996236.0,286047001.9,N
1592996255.8,286047002.5,N
1592996275.6,286047000.0,N
1592996295.5,286047000.8,N
1592996315.3,286046999.8,N
1592996335.1,286047002.3,N
1592996355.9,286047002.6,N
1592996375.7,286047002.4,N
1592996395.5,286047002.3,N
